Time,TemperatureF,DewpointF,PressureIn,WindDirection,WindDirectionDegrees,WindSpeedMPH,WindSpeedGustMPH,Humidity,HourlyPrecipIn,Conditions,Clouds,dailyrainin,SoftwareType,DateUTC
2013-05-11 00:02:00,56.7,42.1,30.16,West,266,0.0,0.0,58,0.00,,,0.00,meteohub,2013-05-11 07:02:00,
2013-05-11 00:07:00,56.5,42.3,30.16,West,266,0.0,0.0,59,0.00,,,0.00,meteohub,2013-05-11 07:07:00,
2013-05-11 00:12:00,56.5,42.3,30.16,West,266,0.0,0.0,59,0.00,,,0.00,meteohub,2013-05-11 07:12:00,
2013-05-11 00:17:00,56.1,42.4,30.16,West,266,0.0,0.0,60,0.00,,,0.00,meteohub,2013-05-11 07:17:00,
2013-05-11 00:22:00,55.9,42.3,30.17,West,265,0.0,0.0,60,0.00,,,0.00,meteohub,2013-05-11 07:22:00,
2013-05-11 00:27:00,55.9,42.3,30.16,West,267,0.0,0.0,60,0.00,,,0.00,meteohub,2013-05-11 07:27:00,
2013-05-11 00:32:00,56.1,42.4,30.16,West,267,0.0,0.0,60,0.00,,,0.00,meteohub,2013-05-11 07:32:00,
2013-05-11 00:37:00,56.1,41.9,30.16,West,265,0.0,0.0,59,0.00,,,0.00,meteohub,2013-05-11 07:37:00,
2013-05-11 00:42:00,55.9,42.3,30.16,West,266,0.0,0.0,60,0.00,,,0.00,meteohub,2013-05-11 07:42:00,
2013-05-11 00:47:00,56.1,41.9,30.16,West,266,0.0,0.0,59,0.00,,,0.00,meteohub,2013-05-11 07:47:00,
2013-05-11 00:52:00,56.3,42.1,30.16,West,266,0.0,0.0,59,0.00,,,0.00,meteohub,2013-05-11 07:52:00,
2013-05-11 00:57:00,56.5,42.3,30.16,ESE,107,0.0,0.0,59,0.00,,,0.00,meteohub,2013-05-11 07:57:00,
2013-05-11 01:02:00,56.5,42.3,30.16,ESE,108,0.0,0.0,59,0.00,,,0.00,meteohub,2013-05-11 08:02:00,
2013-05-11 01:07:00,56.7,42.1,30.16,ESE,108,0.0,0.0,58,0.00,,,0.00,meteohub,2013-05-11 08:07:00,
2013-05-11 01:12:00,56.8,42.3,30.15,ESE,108,0.0,0.0,58,0.00,,,0.00,meteohub,2013-05-11 08:12:00,
2013-05-11 01:17:00,56.8,42.3,30.16,ESE,108,0.0,0.0,58,0.00,,,0.00,meteohub,2013-05-11 08:17:00,
2013-05-11 01:22:00,56.8,42.3,30.15,ESE,109,0.0,0.0,58,0.00,,,0.00,meteohub,2013-05-11 08:22:00,
2013-05-11 01:27:00,57.0,41.9,30.16,ESE,108,0.0,0.0,57,0.00,,,0.00,meteohub,2013-05-11 08:27:00,
2013-05-11 01:32:00,57.0,41.9,30.15,ESE,108,0.0,0.0,57,0.00,,,0.00,meteohub,2013-05-11 08:32:00,
2013-05-11 01:37:00,57.2,42.1,30.15,ESE,108,0.0,0.0,57,0.00,,,0.00,meteohub,2013-05-11 08:37:00,
2013-05-11 01:42:00,57.0,41.9,30.16,ESE,108,0.0,0.0,57,0.00,,,0.00,meteohub,2013-05-11 08:42:00,
2013-05-11 01:47:00,56.7,41.5,30.15,ESE,109,0.0,0.0,57,0.00,,,0.00,meteohub,2013-05-11 08:47:00,
2013-05-11 01:52:00,56.5,41.9,30.15,ESE,109,0.0,0.0,58,0.00,,,0.00,meteohub,2013-05-11 08:52:00,
2013-05-11 01:57:00,56.3,41.7,30.15,ESE,108,0.0,0.0,58,0.00,,,0.00,meteohub,2013-05-11 08:57:00,
2013-05-11 02:02:00,56.1,41.9,30.15,ESE,109,0.0,0.0,59,0.00,,,0.00,meteohub,2013-05-11 09:02:00,
2013-05-11 02:07:00,56.1,41.9,30.15,ESE,108,0.0,0.0,59,0.00,,,0.00,meteohub,2013-05-11 09:07:00,
2013-05-11 02:12:00,56.1,41.5,30.14,ESE,108,0.0,0.0,58,0.00,,,0.00,meteohub,2013-05-11 09:12:00,
2013-05-11 02:17:00,56.1,41.5,30.14,ESE,108,0.0,0.0,58,0.00,,,0.00,meteohub,2013-05-11 09:17:00,
2013-05-11 02:22:00,56.1,41.5,30.14,ESE,109,0.0,0.0,58,0.00,,,0.00,meteohub,2013-05-11 09:22:00,
2013-05-11 02:27:00,56.1,41.5,30.14,ESE,108,0.0,0.0,58,0.00,,,0.00,meteohub,2013-05-11 09:27:00,
2013-05-11 02:32:00,55.9,41.9,30.14,ESE,108,0.0,0.0,59,0.00,,,0.00,meteohub,2013-05-11 09:32:00,
2013-05-11 02:37:00,55.8,41.2,30.14,ESE,108,0.0,0.0,58,0.00,,,0.00,meteohub,2013-05-11 09:37:00,
2013-05-11 02:42:00,55.9,41.4,30.14,ESE,108,0.0,0.0,58,0.00,,,0.00,meteohub,2013-05-11 09:42:00,
2013-05-11 02:47:00,55.9,41.4,30.14,ESE,117,0.0,0.0,58,0.00,,,0.00,meteohub,2013-05-11 09:47:00,
2013-05-11 02:52:00,55.9,41.0,30.14,ESE,117,0.0,0.0,57,0.00,,,0.00,meteohub,2013-05-11 09:52:00,
2013-05-11 02:57:00,56.1,41.2,30.14,SE,136,0.0,0.0,57,0.00,,,0.00,meteohub,2013-05-11 09:57:00,
2013-05-11 03:02:00,56.1,40.6,30.14,SE,136,0.0,0.0,56,0.00,,,0.00,meteohub,2013-05-11 10:02:00,
2013-05-11 03:07:00,56.1,40.1,30.14,SE,136,0.0,0.0,55,0.00,,,0.00,meteohub,2013-05-11 10:07:00,
2013-05-11 03:12:00,55.9,39.9,30.14,SE,136,0.0,0.0,55,0.00,,,0.00,meteohub,2013-05-11 10:12:00,
2013-05-11 03:17:00,55.9,39.9,30.13,SE,136,0.0,0.0,55,0.00,,,0.00,meteohub,2013-05-11 10:17:00,
2013-05-11 03:22:00,55.9,39.6,30.13,SE,136,0.0,0.0,54,0.00,,,0.00,meteohub,2013-05-11 10:22:00,
2013-05-11 03:27:00,55.9,39.0,30.13,SE,136,0.0,0.0,53,0.00,,,0.00,meteohub,2013-05-11 10:27:00,
2013-05-11 03:32:00,55.9,39.0,30.13,SE,136,0.0,0.0,53,0.00,,,0.00,meteohub,2013-05-11 10:32:00,
2013-05-11 03:37:00,56.1,38.7,30.13,SE,134,0.0,0.0,52,0.00,,,0.00,meteohub,2013-05-11 10:37:00,
2013-05-11 03:42:00,56.5,39.0,30.13,SE,135,0.0,0.0,52,0.00,,,0.00,meteohub,2013-05-11 10:42:00,
2013-05-11 03:47:00,56.3,39.4,30.13,SE,135,0.0,0.0,53,0.00,,,0.00,meteohub,2013-05-11 10:47:00,
2013-05-11 03:52:00,56.1,39.2,30.13,SE,135,0.0,0.0,53,0.00,,,0.00,meteohub,2013-05-11 10:52:00,
2013-05-11 03:57:00,55.9,39.0,30.13,SE,135,0.0,0.0,53,0.00,,,0.00,meteohub,2013-05-11 10:57:00,
2013-05-11 04:02:00,55.9,39.0,30.13,SE,136,0.0,0.0,53,0.00,,,0.00,meteohub,2013-05-11 11:02:00,
2013-05-11 04:07:00,55.9,39.0,30.13,SSE,148,0.0,0.0,53,0.00,,,0.00,meteohub,2013-05-11 11:07:00,
2013-05-11 04:12:00,55.8,38.8,30.13,SSE,155,0.0,0.0,53,0.00,,,0.00,meteohub,2013-05-11 11:12:00,
2013-05-11 04:17:00,55.9,39.0,30.13,SSE,155,0.0,0.0,53,0.00,,,0.00,meteohub,2013-05-11 11:17:00,
2013-05-11 04:22:00,55.9,39.0,30.12,SSE,155,0.0,0.0,53,0.00,,,0.00,meteohub,2013-05-11 11:22:00,
2013-05-11 04:27:00,55.8,38.8,30.12,SSE,155,0.0,0.0,53,0.00,,,0.00,meteohub,2013-05-11 11:27:00,
2013-05-11 04:32:00,55.9,39.0,30.12,SSE,155,0.0,0.0,53,0.00,,,0.00,meteohub,2013-05-11 11:32:00,
2013-05-11 04:37:00,55.9,39.0,30.12,SSE,155,0.0,0.0,53,0.00,,,0.00,meteohub,2013-05-11 11:37:00,
2013-05-11 04:42:00,55.9,39.0,30.12,SSE,155,0.0,0.0,53,0.00,,,0.00,meteohub,2013-05-11 11:42:00,
2013-05-11 04:47:00,55.9,39.0,30.12,SSE,155,0.0,0.0,53,0.00,,,0.00,meteohub,2013-05-11 11:47:00,
2013-05-11 04:52:00,55.9,39.0,30.12,SSE,155,0.0,0.0,53,0.00,,,0.00,meteohub,2013-05-11 11:52:00,
2013-05-11 04:57:00,55.9,39.0,30.12,SSE,155,0.0,0.0,53,0.00,,,0.00,meteohub,2013-05-11 11:57:00,
2013-05-11 05:02:00,55.9,39.0,30.12,SSE,155,0.0,0.0,53,0.00,,,0.00,meteohub,2013-05-11 12:02:00,
2013-05-11 05:07:00,55.9,39.0,30.12,SSE,155,0.0,0.0,53,0.00,,,0.00,meteohub,2013-05-11 12:07:00,
2013-05-11 05:12:00,55.8,38.8,30.12,SSE,155,0.0,0.0,53,0.00,,,0.00,meteohub,2013-05-11 12:12:00,
2013-05-11 05:17:00,55.8,38.8,30.12,SSE,155,0.0,0.0,53,0.00,,,0.00,meteohub,2013-05-11 12:17:00,
2013-05-11 05:22:00,55.8,38.5,30.12,SSE,155,0.0,0.0,52,0.00,,,0.00,meteohub,2013-05-11 12:22:00,
2013-05-11 05:27:00,55.8,38.5,30.12,SSE,155,0.0,0.0,52,0.00,,,0.00,meteohub,2013-05-11 12:27:00,
2013-05-11 05:32:00,55.8,38.5,30.12,South,179,0.0,0.0,52,0.00,,,0.00,meteohub,2013-05-11 12:32:00,
2013-05-11 05:37:00,55.6,38.3,30.12,South,179,0.0,0.0,52,0.00,,,0.00,meteohub,2013-05-11 12:37:00,
2013-05-11 05:42:00,55.6,38.3,30.12,South,181,0.0,0.0,52,0.00,,,0.00,meteohub,2013-05-11 12:42:00,
2013-05-11 05:47:00,55.6,38.3,30.12,South,181,0.0,0.0,52,0.00,,,0.00,meteohub,2013-05-11 12:47:00,
2013-05-11 05:52:00,55.4,38.1,30.12,South,181,0.0,0.0,52,0.00,,,0.00,meteohub,2013-05-11 12:52:00,
2013-05-11 05:57:00,55.4,37.0,30.12,South,181,0.0,0.0,50,0.00,,,0.00,meteohub,2013-05-11 12:57:00,
2013-05-11 06:02:00,55.6,36.7,30.12,South,181,0.0,0.0,49,0.00,,,0.00,meteohub,2013-05-11 13:02:00,
2013-05-11 06:07:00,55.6,36.7,30.12,South,181,0.0,0.0,49,0.00,,,0.00,meteohub,2013-05-11 13:07:00,
2013-05-11 06:12:00,55.8,36.9,30.12,South,181,0.0,0.0,49,0.00,,,0.00,meteohub,2013-05-11 13:12:00,
2013-05-11 06:17:00,55.9,37.0,30.12,South,181,0.0,0.0,49,0.00,,,0.00,meteohub,2013-05-11 13:17:00,
2013-05-11 06:22:00,56.1,36.7,30.12,South,181,0.0,0.0,48,0.00,,,0.00,meteohub,2013-05-11 13:22:00,
2013-05-11 06:27:00,56.7,36.7,30.12,South,181,0.0,0.0,47,0.00,,,0.00,meteohub,2013-05-11 13:27:00,
2013-05-11 06:32:00,56.8,36.3,30.13,South,181,0.0,0.0,46,0.00,,,0.00,meteohub,2013-05-11 13:32:00,
2013-05-11 06:37:00,57.0,36.5,30.13,South,181,0.0,0.0,46,0.00,,,0.00,meteohub,2013-05-11 13:37:00,
2013-05-11 06:42:00,57.4,36.1,30.13,South,181,0.0,0.0,45,0.00,,,0.00,meteohub,2013-05-11 13:42:00,
2013-05-11 06:47:00,57.7,37.0,30.14,South,181,0.0,0.0,46,0.00,,,0.00,meteohub,2013-05-11 13:47:00,
2013-05-11 06:52:00,57.7,36.5,30.13,South,179,0.0,0.0,45,0.00,,,0.00,meteohub,2013-05-11 13:52:00,
2013-05-11 06:57:00,57.9,37.2,30.13,South,179,0.0,0.0,46,0.00,,,0.00,meteohub,2013-05-11 13:57:00,
2013-05-11 07:02:00,58.1,36.9,30.13,SSW,195,0.0,0.0,45,0.00,,,0.00,meteohub,2013-05-11 14:02:00,
2013-05-11 07:07:00,58.5,37.2,30.13,SSW,194,0.0,0.0,45,0.00,,,0.00,meteohub,2013-05-11 14:07:00,
2013-05-11 07:12:00,58.8,37.0,30.13,SSW,193,0.0,0.0,44,0.00,,,0.00,meteohub,2013-05-11 14:12:00,
2013-05-11 07:17:00,59.4,37.9,30.13,South,191,0.0,0.0,45,0.00,,,0.00,meteohub,2013-05-11 14:17:00,
2013-05-11 07:22:00,59.7,39.9,30.13,South,191,0.0,0.0,48,0.00,,,0.00,meteohub,2013-05-11 14:22:00,
2013-05-11 07:27:00,59.9,41.2,30.13,South,191,0.0,0.0,50,0.00,,,0.00,meteohub,2013-05-11 14:27:00,
2013-05-11 07:32:00,60.1,42.4,30.13,South,190,0.0,0.0,52,0.00,,,0.00,meteohub,2013-05-11 14:32:00,
2013-05-11 07:37:00,60.3,42.1,30.13,South,190,0.0,0.0,51,0.00,,,0.00,meteohub,2013-05-11 14:37:00,
2013-05-11 07:42:00,60.8,43.5,30.13,South,190,0.0,0.0,53,0.00,,,0.00,meteohub,2013-05-11 14:42:00,
2013-05-11 07:47:00,61.3,42.6,30.13,NE,43,0.0,0.0,50,0.00,,,0.00,meteohub,2013-05-11 14:47:00,
2013-05-11 07:52:00,61.9,41.4,30.13,WNW,296,0.0,0.0,47,0.00,,,0.00,meteohub,2013-05-11 14:52:00,
2013-05-11 07:57:00,62.4,40.3,30.13,ENE,72,0.0,3.0,44,0.00,,,0.00,meteohub,2013-05-11 14:57:00,
2013-05-11 08:02:00,63.1,42.1,30.13,NE,34,1.0,3.0,46,0.00,,,0.00,meteohub,2013-05-11 15:02:00,
2013-05-11 08:07:00,63.3,41.0,30.13,West,275,0.0,3.0,44,0.00,,,0.00,meteohub,2013-05-11 15:07:00,
2013-05-11 08:12:00,63.3,41.0,30.13,NNW,332,0.0,4.0,44,0.00,,,0.00,meteohub,2013-05-11 15:12:00,
2013-05-11 08:17:00,63.3,40.5,30.13,NW,304,0.0,4.0,43,0.00,,,0.00,meteohub,2013-05-11 15:17:00,
2013-05-11 08:22:00,63.7,40.8,30.13,North,1,0.0,3.0,43,0.00,,,0.00,meteohub,2013-05-11 15:22:00,
2013-05-11 08:27:00,64.0,39.9,30.14,WNW,289,0.0,0.0,41,0.00,,,0.00,meteohub,2013-05-11 15:27:00,
2013-05-11 08:32:00,64.4,40.8,30.14,WNW,290,0.0,0.0,42,0.00,,,0.00,meteohub,2013-05-11 15:32:00,
2013-05-11 08:37:00,64.4,40.8,30.14,NNE,30,1.0,0.0,42,0.00,,,0.00,meteohub,2013-05-11 15:37:00,
2013-05-11 08:42:00,64.9,40.6,30.14,WNW,287,1.0,6.0,41,0.00,,,0.00,meteohub,2013-05-11 15:42:00,
2013-05-11 08:47:00,65.1,40.8,30.14,East,86,0.0,6.0,41,0.00,,,0.00,meteohub,2013-05-11 15:47:00,
2013-05-11 08:52:00,65.7,40.6,30.13,West,278,0.0,5.0,40,0.00,,,0.00,meteohub,2013-05-11 15:52:00,
2013-05-11 08:57:00,66.2,41.2,30.13,NW,311,2.0,5.0,40,0.00,,,0.00,meteohub,2013-05-11 15:57:00,
2013-05-11 09:02:00,66.0,41.0,30.13,NE,47,3.0,6.0,40,0.00,,,0.00,meteohub,2013-05-11 16:02:00,
2013-05-11 09:07:00,66.7,41.0,30.13,NW,311,4.0,6.0,39,0.00,,,0.00,meteohub,2013-05-11 16:07:00,
2013-05-11 09:12:00,66.9,41.2,30.13,WSW,249,2.0,6.0,39,0.00,,,0.00,meteohub,2013-05-11 16:12:00,
2013-05-11 09:17:00,67.6,41.7,30.13,WNW,295,1.0,6.0,39,0.00,,,0.00,meteohub,2013-05-11 16:17:00,
2013-05-11 09:22:00,68.4,41.0,30.13,NE,41,1.0,6.0,37,0.00,,,0.00,meteohub,2013-05-11 16:22:00,
2013-05-11 09:27:00,69.1,41.7,30.13,NE,38,2.0,4.0,37,0.00,,,0.00,meteohub,2013-05-11 16:27:00,
2013-05-11 09:32:00,69.3,40.5,30.13,North,8,1.0,4.0,35,0.00,,,0.00,meteohub,2013-05-11 16:32:00,
2013-05-11 09:37:00,69.8,42.4,30.13,NNW,343,2.0,5.0,37,0.00,,,0.00,meteohub,2013-05-11 16:37:00,
2013-05-11 09:42:00,70.7,42.4,30.13,NNE,25,0.0,5.0,36,0.00,,,0.00,meteohub,2013-05-11 16:42:00,
2013-05-11 09:47:00,70.3,39.9,30.13,North,1,1.0,6.0,33,0.00,,,0.00,meteohub,2013-05-11 16:47:00,
2013-05-11 09:52:00,69.6,40.8,30.13,ESE,122,0.0,7.0,35,0.00,,,0.00,meteohub,2013-05-11 16:52:00,
2013-05-11 09:57:00,70.0,40.3,30.13,NNW,344,0.0,7.0,34,0.00,,,0.00,meteohub,2013-05-11 16:57:00,
2013-05-11 10:02:00,70.5,41.5,30.12,West,280,3.0,7.0,35,0.00,,,0.00,meteohub,2013-05-11 17:02:00,
2013-05-11 10:07:00,70.7,41.7,30.13,NE,50,2.0,6.0,35,0.00,,,0.00,meteohub,2013-05-11 17:07:00,
2013-05-11 10:12:00,71.4,40.8,30.13,NE,41,3.0,5.0,33,0.00,,,0.00,meteohub,2013-05-11 17:12:00,
2013-05-11 10:17:00,72.1,38.1,30.13,WNW,293,4.0,8.0,29,0.00,,,0.00,meteohub,2013-05-11 17:17:00,
2013-05-11 10:22:00,72.9,38.7,30.13,ESE,117,8.0,8.0,29,0.00,,,0.00,meteohub,2013-05-11 17:22:00,
2013-05-11 10:27:00,72.9,36.9,30.12,East,96,1.0,9.0,27,0.00,,,0.00,meteohub,2013-05-11 17:27:00,
2013-05-11 10:32:00,73.0,34.2,30.13,NE,49,0.0,11.0,24,0.00,,,0.00,meteohub,2013-05-11 17:32:00,
2013-05-11 10:37:00,72.9,34.0,30.13,East,101,5.0,11.0,24,0.00,,,0.00,meteohub,2013-05-11 17:37:00,
2013-05-11 10:42:00,73.0,35.1,30.13,WNW,286,6.0,11.0,25,0.00,,,0.00,meteohub,2013-05-11 17:42:00,
2013-05-11 10:47:00,72.7,32.7,30.13,WNW,283,4.0,11.0,23,0.00,,,0.00,meteohub,2013-05-11 17:47:00,
2013-05-11 10:52:00,72.9,34.0,30.13,NE,45,2.0,12.0,24,0.00,,,0.00,meteohub,2013-05-11 17:52:00,
2013-05-11 10:57:00,73.6,36.5,30.13,ESE,119,3.0,12.0,26,0.00,,,0.00,meteohub,2013-05-11 17:57:00,
2013-05-11 11:02:00,73.8,33.6,30.13,NE,44,7.0,12.0,23,0.00,,,0.00,meteohub,2013-05-11 18:02:00,
2013-05-11 11:07:00,73.6,34.5,30.13,ENE,68,5.0,10.0,24,0.00,,,0.00,meteohub,2013-05-11 18:07:00,
2013-05-11 11:12:00,73.8,36.7,30.13,NNE,20,2.0,10.0,26,0.00,,,0.00,meteohub,2013-05-11 18:12:00,
2013-05-11 11:17:00,73.9,34.9,30.13,North,350,3.0,12.0,24,0.00,,,0.00,meteohub,2013-05-11 18:17:00,
2013-05-11 11:22:00,73.9,32.7,30.13,NE,43,6.0,12.0,22,0.00,,,0.00,meteohub,2013-05-11 18:22:00,
2013-05-11 11:27:00,73.4,33.3,30.13,NW,317,4.0,12.0,23,0.00,,,0.00,meteohub,2013-05-11 18:27:00,
2013-05-11 11:32:00,73.0,33.1,30.13,NE,43,6.0,11.0,23,0.00,,,0.00,meteohub,2013-05-11 18:32:00,
2013-05-11 11:37:00,73.2,34.3,30.13,East,99,9.0,11.0,24,0.00,,,0.00,meteohub,2013-05-11 18:37:00,
2013-05-11 11:42:00,73.6,32.4,30.13,NNE,19,2.0,12.0,22,0.00,,,0.00,meteohub,2013-05-11 18:42:00,
2013-05-11 11:47:00,73.8,33.6,30.13,ENE,73,4.0,12.0,23,0.00,,,0.00,meteohub,2013-05-11 18:47:00,
2013-05-11 11:52:00,73.8,35.8,30.13,ENE,74,4.0,10.0,25,0.00,,,0.00,meteohub,2013-05-11 18:52:00,
2013-05-11 11:57:00,73.9,32.7,30.13,East,79,5.0,10.0,22,0.00,,,0.00,meteohub,2013-05-11 18:57:00,
2013-05-11 12:02:00,74.5,34.3,30.13,ENE,75,2.0,11.0,23,0.00,,,0.00,meteohub,2013-05-11 19:02:00,
2013-05-11 12:07:00,74.1,32.9,30.13,NNE,15,4.0,11.0,22,0.00,,,0.00,meteohub,2013-05-11 19:07:00,
2013-05-11 12:12:00,73.9,31.5,30.12,NE,38,4.0,11.0,21,0.00,,,0.00,meteohub,2013-05-11 19:12:00,
2013-05-11 12:17:00,74.1,34.0,30.12,West,279,3.0,9.0,23,0.00,,,0.00,meteohub,2013-05-11 19:17:00,
2013-05-11 12:22:00,74.5,32.0,30.13,East,93,9.0,9.0,21,0.00,,,0.00,meteohub,2013-05-11 19:22:00,
2013-05-11 12:27:00,73.9,32.7,30.12,WNW,288,4.0,10.0,22,0.00,,,0.00,meteohub,2013-05-11 19:27:00,
2013-05-11 12:32:00,73.9,32.7,30.12,NE,34,8.0,10.0,22,0.00,,,0.00,meteohub,2013-05-11 19:32:00,
2013-05-11 12:37:00,74.1,30.6,30.12,NNE,33,6.0,11.0,20,0.00,,,0.00,meteohub,2013-05-11 19:37:00,
2013-05-11 12:42:00,74.5,29.5,30.12,NNE,22,5.0,11.0,19,0.00,,,0.00,meteohub,2013-05-11 19:42:00,
2013-05-11 12:47:00,75.0,31.3,30.12,East,83,6.0,11.0,20,0.00,,,0.00,meteohub,2013-05-11 19:47:00,
2013-05-11 12:52:00,74.8,29.8,30.12,West,281,3.0,10.0,19,0.00,,,0.00,meteohub,2013-05-11 19:52:00,
2013-05-11 12:57:00,74.8,28.4,30.12,West,262,1.0,9.0,18,0.00,,,0.00,meteohub,2013-05-11 19:57:00,
2013-05-11 13:07:00,75.4,28.9,30.12,NNE,27,4.0,11.0,18,0.00,,,0.00,meteohub,2013-05-11 20:07:00,
2013-05-11 13:12:00,75.6,29.1,30.12,SE,130,2.0,11.0,18,0.00,,,0.00,meteohub,2013-05-11 20:12:00,
2013-05-11 13:17:00,75.7,30.6,30.12,East,82,4.0,11.0,19,0.00,,,0.00,meteohub,2013-05-11 20:17:00,
2013-05-11 13:22:00,75.9,30.7,30.12,NE,44,2.0,11.0,19,0.00,,,0.00,meteohub,2013-05-11 20:22:00,
2013-05-11 13:27:00,75.7,29.3,30.12,NNE,13,9.0,11.0,18,0.00,,,0.00,meteohub,2013-05-11 20:27:00,
2013-05-11 13:32:00,75.4,28.9,30.11,ENE,64,2.0,11.0,18,0.00,,,0.00,meteohub,2013-05-11 20:32:00,
2013-05-11 13:37:00,75.9,30.7,30.11,ENE,68,8.0,11.0,19,0.00,,,0.00,meteohub,2013-05-11 20:37:00,
2013-05-11 13:42:00,76.1,28.0,30.11,North,3,3.0,11.0,17,0.00,,,0.00,meteohub,2013-05-11 20:42:00,
2013-05-11 13:47:00,75.9,30.7,30.11,South,179,2.0,9.0,19,0.00,,,0.00,meteohub,2013-05-11 20:47:00,
2013-05-11 13:52:00,76.3,29.7,30.11,East,98,3.0,9.0,18,0.00,,,0.00,meteohub,2013-05-11 20:52:00,
2013-05-11 13:57:00,76.6,30.0,30.11,East,100,4.0,8.0,18,0.00,,,0.00,meteohub,2013-05-11 20:57:00,
2013-05-11 14:02:00,76.8,28.8,30.11,NE,34,2.0,8.0,17,0.00,,,0.00,meteohub,2013-05-11 21:02:00,
2013-05-11 14:07:00,76.8,27.1,30.11,ENE,70,6.0,10.0,16,0.00,,,0.00,meteohub,2013-05-11 21:07:00,
2013-05-11 14:12:00,77.0,28.8,30.11,NNE,23,4.0,10.0,17,0.00,,,0.00,meteohub,2013-05-11 21:12:00,
2013-05-11 14:17:00,77.4,29.1,30.10,ENE,63,1.0,9.0,17,0.00,,,0.00,meteohub,2013-05-11 21:17:00,
2013-05-11 14:22:00,77.2,25.9,30.10,NNW,341,7.0,9.0,15,0.00,,,0.00,meteohub,2013-05-11 21:22:00,
2013-05-11 14:27:00,76.8,27.1,30.10,ESE,120,3.0,11.0,16,0.00,,,0.00,meteohub,2013-05-11 21:27:00,
2013-05-11 14:32:00,76.8,27.1,30.10,West,263,0.0,11.0,16,0.00,,,0.00,meteohub,2013-05-11 21:32:00,
2013-05-11 14:37:00,77.2,25.9,30.10,NE,49,4.0,11.0,15,0.00,,,0.00,meteohub,2013-05-11 21:37:00,
2013-05-11 14:42:00,76.8,27.1,30.10,NNE,12,2.0,9.0,16,0.00,,,0.00,meteohub,2013-05-11 21:42:00,
2013-05-11 14:47:00,77.4,26.1,30.10,SW,230,1.0,9.0,15,0.00,,,0.00,meteohub,2013-05-11 21:47:00,
2013-05-11 14:52:00,77.0,27.3,30.09,East,83,3.0,9.0,16,0.00,,,0.00,meteohub,2013-05-11 21:52:00,
2013-05-11 14:57:00,77.5,26.2,30.09,West,264,2.0,16.0,15,0.00,,,0.00,meteohub,2013-05-11 21:57:00,
2013-05-11 15:02:00,77.5,29.3,30.09,West,276,2.0,16.0,17,0.00,,,0.00,meteohub,2013-05-11 22:02:00,
2013-05-11 15:07:00,77.5,27.9,30.09,NNE,24,4.0,9.0,16,0.00,,,0.00,meteohub,2013-05-11 22:07:00,
2013-05-11 15:12:00,77.9,28.0,30.08,ENE,67,2.0,9.0,16,0.00,,,0.00,meteohub,2013-05-11 22:12:00,
2013-05-11 15:17:00,77.5,26.2,30.08,ENE,60,2.0,9.0,15,0.00,,,0.00,meteohub,2013-05-11 22:17:00,
2013-05-11 15:22:00,76.8,28.8,30.08,WSW,238,0.0,9.0,17,0.00,,,0.00,meteohub,2013-05-11 22:22:00,
2013-05-11 15:27:00,77.2,27.5,30.08,SE,135,3.0,9.0,16,0.00,,,0.00,meteohub,2013-05-11 22:27:00,
2013-05-11 15:32:00,77.5,29.3,30.08,NE,49,2.0,9.0,17,0.00,,,0.00,meteohub,2013-05-11 22:32:00,
2013-05-11 15:37:00,77.4,27.7,30.08,WNW,301,4.0,6.0,16,0.00,,,0.00,meteohub,2013-05-11 22:37:00,
2013-05-11 15:42:00,76.3,29.7,30.08,ENE,61,1.0,8.0,18,0.00,,,0.00,meteohub,2013-05-11 22:42:00,
2013-05-11 15:47:00,75.6,29.1,30.07,WNW,295,4.0,8.0,18,0.00,,,0.00,meteohub,2013-05-11 22:47:00,
2013-05-11 15:52:00,75.0,30.0,30.07,NW,304,2.0,8.0,19,0.00,,,0.00,meteohub,2013-05-11 22:52:00,
2013-05-11 15:57:00,74.1,30.6,30.07,NW,311,1.0,8.0,20,0.00,,,0.00,meteohub,2013-05-11 22:57:00,
2013-05-11 16:02:00,73.9,33.8,30.07,NNE,24,4.0,7.0,23,0.00,,,0.00,meteohub,2013-05-11 23:02:00,
2013-05-11 16:07:00,73.6,35.6,30.07,ENE,59,0.0,6.0,25,0.00,,,0.00,meteohub,2013-05-11 23:07:00,
2013-05-11 16:12:00,73.6,38.5,30.06,West,267,0.0,6.0,28,0.00,,,0.00,meteohub,2013-05-11 23:12:00,
2013-05-11 16:17:00,74.1,32.9,30.06,WNW,292,3.0,6.0,22,0.00,,,0.00,meteohub,2013-05-11 23:17:00,
2013-05-11 16:22:00,74.5,35.2,30.06,SE,136,1.0,4.0,24,0.00,,,0.00,meteohub,2013-05-11 23:22:00,
2013-05-11 16:27:00,74.8,36.7,30.06,SE,124,1.0,5.0,25,0.00,,,0.00,meteohub,2013-05-11 23:27:00,
2013-05-11 16:32:00,74.5,37.4,30.06,South,169,0.0,5.0,26,0.00,,,0.00,meteohub,2013-05-11 23:32:00,
2013-05-11 16:37:00,74.1,36.0,30.06,SW,224,2.0,5.0,25,0.00,,,0.00,meteohub,2013-05-11 23:37:00,
2013-05-11 16:42:00,73.9,36.9,30.06,ESE,110,1.0,5.0,26,0.00,,,0.00,meteohub,2013-05-11 23:42:00,
2013-05-11 16:47:00,73.6,37.6,30.06,East,80,4.0,5.0,27,0.00,,,0.00,meteohub,2013-05-11 23:47:00,
2013-05-11 16:52:00,73.2,37.2,30.06,South,188,1.0,5.0,27,0.00,,,0.00,meteohub,2013-05-11 23:52:00,
2013-05-11 16:57:00,73.0,37.9,30.06,SSE,158,0.0,4.0,28,0.00,,,0.00,meteohub,2013-05-11 23:57:00,
2013-05-11 17:02:00,73.0,40.6,30.06,SE,132,3.0,4.0,31,0.00,,,0.00,meteohub,2013-05-12 00:02:00,
2013-05-11 17:07:00,73.0,41.4,30.06,ENE,75,2.0,3.0,32,0.00,,,0.00,meteohub,2013-05-12 00:07:00,
2013-05-11 17:12:00,72.9,38.7,30.06,East,80,2.0,4.0,29,0.00,,,0.00,meteohub,2013-05-12 00:12:00,
2013-05-11 17:17:00,73.0,37.9,30.06,SSW,210,0.0,6.0,28,0.00,,,0.00,meteohub,2013-05-12 00:17:00,
2013-05-11 17:22:00,73.2,39.0,30.06,NW,314,0.0,6.0,29,0.00,,,0.00,meteohub,2013-05-12 00:22:00,
2013-05-11 17:27:00,73.4,39.2,30.06,SE,124,0.0,6.0,29,0.00,,,0.00,meteohub,2013-05-12 00:27:00,
2013-05-11 17:32:00,73.4,41.0,30.06,SE,144,3.0,4.0,31,0.00,,,0.00,meteohub,2013-05-12 00:32:00,
2013-05-11 17:37:00,73.0,41.4,30.06,ESE,121,0.0,6.0,32,0.00,,,0.00,meteohub,2013-05-12 00:37:00,
2013-05-11 17:42:00,72.9,43.5,30.06,ESE,122,1.0,6.0,35,0.00,,,0.00,meteohub,2013-05-12 00:42:00,
2013-05-11 17:47:00,72.7,42.6,30.05,SSE,160,2.0,6.0,34,0.00,,,0.00,meteohub,2013-05-12 00:47:00,
2013-05-11 17:52:00,72.7,44.2,30.05,SSW,200,0.0,4.0,36,0.00,,,0.00,meteohub,2013-05-12 00:52:00,
2013-05-11 17:57:00,72.0,44.2,30.05,SSE,163,2.0,4.0,37,0.00,,,0.00,meteohub,2013-05-12 00:57:00,
2013-05-11 18:02:00,71.4,44.4,30.05,SE,143,0.0,7.0,38,0.00,,,0.00,meteohub,2013-05-12 01:02:00,
2013-05-11 18:07:00,71.1,44.8,30.05,East,90,0.0,7.0,39,0.00,,,0.00,meteohub,2013-05-12 01:07:00,
2013-05-11 18:12:00,71.1,44.2,30.05,ESE,111,0.0,5.0,38,0.00,,,0.00,meteohub,2013-05-12 01:12:00,
2013-05-11 18:17:00,70.7,43.9,30.05,East,101,0.0,4.0,38,0.00,,,0.00,meteohub,2013-05-12 01:17:00,
2013-05-11 18:22:00,70.3,44.2,30.05,SE,139,3.0,3.0,39,0.00,,,0.00,meteohub,2013-05-12 01:22:00,
2013-05-11 18:27:00,70.3,44.2,30.05,SSE,149,1.0,6.0,39,0.00,,,0.00,meteohub,2013-05-12 01:27:00,
2013-05-11 18:32:00,70.0,45.1,30.05,ESE,108,0.0,6.0,41,0.00,,,0.00,meteohub,2013-05-12 01:32:00,
2013-05-11 18:37:00,69.6,45.0,30.05,SE,134,0.0,6.0,41,0.00,,,0.00,meteohub,2013-05-12 01:37:00,
2013-05-11 18:42:00,69.6,44.2,30.05,SE,128,0.0,4.0,40,0.00,,,0.00,meteohub,2013-05-12 01:42:00,
2013-05-11 18:47:00,69.3,45.1,30.06,SE,128,0.0,4.0,42,0.00,,,0.00,meteohub,2013-05-12 01:47:00,
2013-05-11 18:52:00,68.9,43.5,30.06,SE,128,0.0,2.0,40,0.00,,,0.00,meteohub,2013-05-12 01:52:00,
2013-05-11 18:57:00,68.4,44.4,30.06,SE,129,0.0,2.0,42,0.00,,,0.00,meteohub,2013-05-12 01:57:00,
2013-05-11 19:02:00,67.8,43.9,30.06,SE,129,0.0,0.0,42,0.00,,,0.00,meteohub,2013-05-12 02:02:00,
2013-05-11 19:07:00,67.6,44.4,30.06,SE,138,0.0,0.0,43,0.00,,,0.00,meteohub,2013-05-12 02:07:00,
2013-05-11 19:12:00,67.3,44.6,30.06,SSE,162,0.0,0.0,44,0.00,,,0.00,meteohub,2013-05-12 02:12:00,
2013-05-11 19:17:00,66.9,45.0,30.06,SSE,162,0.0,0.0,45,0.00,,,0.00,meteohub,2013-05-12 02:17:00,
2013-05-11 19:22:00,66.6,44.6,30.06,WSW,249,0.0,0.0,45,0.00,,,0.00,meteohub,2013-05-12 02:22:00,
2013-05-11 19:27:00,66.2,43.7,30.06,SW,222,0.0,1.0,44,0.00,,,0.00,meteohub,2013-05-12 02:27:00,
2013-05-11 19:32:00,66.4,44.4,30.06,South,184,1.0,2.0,45,0.00,,,0.00,meteohub,2013-05-12 02:32:00,
2013-05-11 19:37:00,66.4,44.4,30.06,SSE,166,0.0,4.0,45,0.00,,,0.00,meteohub,2013-05-12 02:37:00,
2013-05-11 19:42:00,66.0,44.6,30.06,SE,141,0.0,4.0,46,0.00,,,0.00,meteohub,2013-05-12 02:42:00,
2013-05-11 19:47:00,65.8,43.9,30.06,SE,143,0.0,3.0,45,0.00,,,0.00,meteohub,2013-05-12 02:47:00,
2013-05-11 19:52:00,65.7,44.2,30.06,SSE,163,0.0,2.0,46,0.00,,,0.00,meteohub,2013-05-12 02:52:00,
2013-05-11 19:57:00,65.3,43.3,30.06,SSE,165,1.0,2.0,45,0.00,,,0.00,meteohub,2013-05-12 02:57:00,
2013-05-11 20:02:00,64.9,43.7,30.07,SW,231,0.0,2.0,46,0.00,,,0.00,meteohub,2013-05-12 03:02:00,
2013-05-11 20:07:00,64.8,41.2,30.07,SW,231,0.0,1.0,42,0.00,,,0.00,meteohub,2013-05-12 03:07:00,
2013-05-11 20:12:00,64.8,37.9,30.07,SW,231,0.0,1.0,37,0.00,,,0.00,meteohub,2013-05-12 03:12:00,
2013-05-11 20:17:00,64.8,36.5,30.07,SW,227,0.0,0.0,35,0.00,,,0.00,meteohub,2013-05-12 03:17:00,
2013-05-11 20:22:00,64.9,36.0,30.07,SW,228,0.0,0.0,34,0.00,,,0.00,meteohub,2013-05-12 03:22:00,
2013-05-11 20:27:00,64.9,36.0,30.08,SW,226,0.0,0.0,34,0.00,,,0.00,meteohub,2013-05-12 03:27:00,
2013-05-11 20:32:00,64.9,35.1,30.08,SW,226,0.0,0.0,33,0.00,,,0.00,meteohub,2013-05-12 03:32:00,
2013-05-11 20:37:00,65.1,34.5,30.08,South,173,0.0,0.0,32,0.00,,,0.00,meteohub,2013-05-12 03:37:00,
2013-05-11 20:42:00,64.9,34.3,30.08,South,170,0.0,0.0,32,0.00,,,0.00,meteohub,2013-05-12 03:42:00,
2013-05-11 20:47:00,64.9,33.6,30.09,SSE,167,0.0,0.0,31,0.00,,,0.00,meteohub,2013-05-12 03:47:00,
2013-05-11 20:52:00,64.9,33.6,30.09,South,174,0.0,0.0,31,0.00,,,0.00,meteohub,2013-05-12 03:52:00,
2013-05-11 20:57:00,64.6,33.3,30.09,South,174,0.0,0.0,31,0.00,,,0.00,meteohub,2013-05-12 03:57:00,
2013-05-11 21:02:00,64.6,33.3,30.09,SW,219,0.0,0.0,31,0.00,,,0.00,meteohub,2013-05-12 04:02:00,
2013-05-11 21:07:00,64.4,33.1,30.09,SW,222,0.0,0.0,31,0.00,,,0.00,meteohub,2013-05-12 04:07:00,
2013-05-11 21:12:00,64.6,31.6,30.09,SW,222,0.0,0.0,29,0.00,,,0.00,meteohub,2013-05-12 04:12:00,
2013-05-11 21:17:00,64.8,30.0,30.10,ESE,117,0.0,0.0,27,0.00,,,0.00,meteohub,2013-05-12 04:17:00,
2013-05-11 21:22:00,65.3,31.3,30.10,ESE,121,0.0,0.0,28,0.00,,,0.00,meteohub,2013-05-12 04:22:00,
2013-05-11 21:27:00,65.1,31.3,30.10,SW,225,0.0,0.0,28,0.00,,,0.00,meteohub,2013-05-12 04:27:00,
2013-05-11 21:32:00,64.9,31.1,30.10,SW,226,0.0,0.0,28,0.00,,,0.00,meteohub,2013-05-12 04:32:00,
2013-05-11 21:37:00,64.8,30.9,30.11,SW,228,0.0,0.0,28,0.00,,,0.00,meteohub,2013-05-12 04:37:00,
2013-05-11 21:42:00,64.8,30.9,30.11,WSW,239,0.0,0.0,28,0.00,,,0.00,meteohub,2013-05-12 04:42:00,
2013-05-11 21:47:00,64.8,30.9,30.11,WSW,239,0.0,0.0,28,0.00,,,0.00,meteohub,2013-05-12 04:47:00,
2013-05-11 21:52:00,64.8,32.5,30.11,SW,236,0.0,0.0,30,0.00,,,0.00,meteohub,2013-05-12 04:52:00,
2013-05-11 21:57:00,64.6,34.0,30.12,WSW,238,0.0,0.0,32,0.00,,,0.00,meteohub,2013-05-12 04:57:00,
2013-05-11 22:02:00,64.6,32.4,30.12,SW,236,0.0,0.0,30,0.00,,,0.00,meteohub,2013-05-12 05:02:00,
2013-05-11 22:07:00,64.8,32.5,30.12,SW,225,0.0,0.0,30,0.00,,,0.00,meteohub,2013-05-12 05:07:00,
2013-05-11 22:12:00,64.6,35.6,30.12,SW,225,0.0,0.0,34,0.00,,,0.00,meteohub,2013-05-12 05:12:00,
2013-05-11 22:17:00,63.9,34.9,30.12,SW,224,0.0,0.0,34,0.00,,,0.00,meteohub,2013-05-12 05:17:00,
2013-05-11 22:22:00,63.5,36.1,30.12,SW,224,0.0,0.0,36,0.00,,,0.00,meteohub,2013-05-12 05:22:00,
2013-05-11 22:27:00,63.7,36.9,30.12,SW,224,0.0,0.0,37,0.00,,,0.00,meteohub,2013-05-12 05:27:00,
2013-05-11 22:32:00,63.7,37.6,30.12,SW,224,0.0,0.0,38,0.00,,,0.00,meteohub,2013-05-12 05:32:00,
2013-05-11 22:37:00,63.7,36.1,30.12,SW,225,0.0,0.0,36,0.00,,,0.00,meteohub,2013-05-12 05:37:00,
2013-05-11 22:42:00,63.7,34.7,30.12,SW,225,0.0,0.0,34,0.00,,,0.00,meteohub,2013-05-12 05:42:00,
2013-05-11 22:47:00,64.0,32.7,30.12,SW,225,0.0,0.0,31,0.00,,,0.00,meteohub,2013-05-12 05:47:00,
2013-05-11 22:52:00,64.0,32.0,30.12,SW,225,0.0,0.0,30,0.00,,,0.00,meteohub,2013-05-12 05:52:00,
2013-05-11 22:57:00,64.2,31.3,30.12,SW,225,0.0,0.0,29,0.00,,,0.00,meteohub,2013-05-12 05:57:00,
2013-05-11 23:07:00,64.0,30.2,30.12,SW,225,0.0,0.0,28,0.00,,,0.00,meteohub,2013-05-12 06:07:00,
2013-05-11 23:12:00,64.0,30.2,30.12,SW,225,0.0,0.0,28,0.00,,,0.00,meteohub,2013-05-12 06:12:00,
2013-05-11 23:17:00,64.2,29.5,30.12,SW,225,0.0,0.0,27,0.00,,,0.00,meteohub,2013-05-12 06:17:00,
2013-05-11 23:22:00,64.2,29.5,30.12,SW,225,0.0,0.0,27,0.00,,,0.00,meteohub,2013-05-12 06:22:00,
2013-05-11 23:27:00,64.0,29.3,30.12,SW,225,0.0,0.0,27,0.00,,,0.00,meteohub,2013-05-12 06:27:00,
2013-05-11 23:32:00,64.2,29.5,30.12,SW,224,0.0,0.0,27,0.00,,,0.00,meteohub,2013-05-12 06:32:00,
2013-05-11 23:37:00,64.2,29.5,30.12,SW,225,0.0,0.0,27,0.00,,,0.00,meteohub,2013-05-12 06:37:00,
2013-05-11 23:42:00,64.4,29.7,30.12,SW,225,0.0,0.0,27,0.00,,,0.00,meteohub,2013-05-12 06:42:00,
2013-05-11 23:47:00,64.4,28.8,30.12,SW,214,0.0,0.0,26,0.00,,,0.00,meteohub,2013-05-12 06:47:00,
2013-05-11 23:52:00,64.2,30.4,30.12,SSW,212,0.0,0.0,28,0.00,,,0.00,meteohub,2013-05-12 06:52:00,
2013-05-11 23:57:00,64.0,30.2,30.12,SW,214,0.0,0.0,28,0.00,,,0.00,meteohub,2013-05-12 06:57:00,